Weather History for KACV - January, 2014

Change the Weather History Date:

Monday, January 13, 2014

  Actual Average Record
Temperature  
Mean Temperature 46 °F -  
Max Temperature 55 °F 54 °F 68 °F (2009)
Min Temperature 36 °F 39 °F 24 °F (2007)
Degree Days  
Heating Degree Days 20    
Moisture  
Dew Point 40 °F    
Average Humidity 83    
Maximum Humidity 97    
Minimum Humidity 69    
Precipitation  
Precipitation 0.00 in - - ()
Sea Level Pressure  
Sea Level Pressure 30.50 in    
Wind  
Wind Speed 4 mph (East)    
Max Wind Speed 12 mph    
Max Gust Speed -    
Visibility 8 miles    
Events      
Averages and records for this station are not official NWS values.
T = Trace of Precipitation, MM = Missing Value Source: NWS Daily Summary

Daily Weather History Graph

Daily Weather History Graph

Search for Another Location

Airport or City:

Trip Planner

Search our weather history database for the weather conditions in past years. The results will help you decide how hot, cold, wet, or windy it might be!

Date:

Astronomy

Jan. 13, 2014 Rise Set
Actual Time 7:39 AM PST 5:10 PM PST
Civil Twilight 7:09 AM PST 5:41 PM PST
Nautical Twilight 6:35 AM PST 6:15 PM PST
Astronomical Twilight 6:02 AM PST 6:48 PM PST
Moon 3:30 PM PST (1/13) 5:33 AM PST (1/13)
Length of Visible Light 10h 31m
Length of Day
9h 31m
Waxing Gibbous, 95% of the Moon is Illuminated
Jan 13
Waxing Gibbous
Jan 15
Full
Jan 23
Last Quarter
Jan 30
New
Feb 6
First Quarter

Hourly Weather History & Observations

Time (PST) Temp. Windchill Dew Point Humidity Pressure Visibility Wind Dir Wind Speed Gust Speed Precip Events Conditions
12:53 AM 46.9 °F - 39.9 °F 77% 30.53 in 10.0 mi NNE 9.2 mph - N/A   Clear
1:53 AM 46.9 °F - 39.9 °F 77% 30.52 in 10.0 mi NE 11.5 mph - N/A   Clear
2:53 AM 46.9 °F - 39.0 °F 74% 30.51 in 10.0 mi Calm Calm - N/A   Clear
3:53 AM 44.1 °F 42.5 °F 37.9 °F 79% 30.51 in 10.0 mi NE 3.5 mph - N/A   Clear
4:53 AM 39.0 °F - 37.0 °F 93% 30.51 in 10.0 mi Calm Calm - N/A   Clear
5:53 AM 39.0 °F - 36.0 °F 89% 30.51 in 10.0 mi Calm Calm - N/A   Clear
6:53 AM 36.0 °F 32.1 °F 34.0 °F 93% 30.52 in 10.0 mi SE 4.6 mph - N/A   Clear
7:53 AM 36.0 °F - 34.0 °F 93% 30.53 in 5.0 mi Calm Calm - N/A   Clear
8:53 AM 39.9 °F - 37.9 °F 93% 30.55 in 9.0 mi Calm Calm - N/A   Clear
9:53 AM 46.9 °F - 42.1 °F 83% 30.56 in 10.0 mi Calm Calm - N/A   Clear
10:36 AM 48.0 °F - 42.1 °F 80% 30.54 in 2.5 mi West 3.5 mph - N/A   Haze
10:53 AM 50.0 °F - 42.1 °F 74% 30.56 in 5.0 mi Calm Calm - N/A   Haze
11:53 AM 51.1 °F - 42.1 °F 71% 30.54 in 8.0 mi Calm Calm - N/A   Partly Cloudy
12:53 PM 52.0 °F - 43.0 °F 71% 30.52 in 6.0 mi WNW 5.8 mph - N/A   Haze
1:53 PM 52.0 °F - 44.1 °F 74% 30.49 in 9.0 mi WNW 4.6 mph - N/A   Clear
2:53 PM 53.1 °F - 44.1 °F 71% 30.48 in 9.0 mi SSW 5.8 mph - N/A   Clear
3:53 PM 55.0 °F - 45.0 °F 69% 30.47 in 10.0 mi SSW 3.5 mph - N/A   Clear
4:53 PM 51.1 °F - 43.0 °F 74% 30.49 in 10.0 mi SW 3.5 mph - N/A   Clear
5:05 PM 48.9 °F - 43.0 °F 80% 30.46 in 1.8 mi NW 3.5 mph - N/A   Haze
5:16 PM 48.9 °F - 43.0 °F 80% 30.46 in 1.2 mi Calm Calm - N/A   Haze
5:31 PM 46.9 °F - 43.0 °F 86% 30.46 in 3.0 mi Calm Calm - N/A   Overcast
5:53 PM 45.0 °F - 43.0 °F 93% 30.49 in 9.0 mi Calm Calm - N/A   Overcast
6:25 PM 45.0 °F 42.6 °F 42.1 °F 90% 30.47 in 8.0 mi ESE 4.6 mph - N/A   Scattered Clouds
6:53 PM 44.1 °F 41.5 °F 41.0 °F 89% 30.50 in 5.0 mi ENE 4.6 mph - N/A   Clear
7:53 PM 42.1 °F 40.2 °F 39.9 °F 92% 30.49 in 8.0 mi East 3.5 mph - N/A   Clear
8:53 PM 39.9 °F 37.8 °F 37.9 °F 93% 30.49 in 8.0 mi East 3.5 mph - N/A   Clear
9:53 PM 39.9 °F 37.8 °F 37.9 °F 93% 30.50 in 4.0 mi East 3.5 mph - N/A   Clear
10:53 PM 39.9 °F 35.8 °F 39.0 °F 97% 30.48 in 10.0 mi ESE 5.8 mph - N/A   Clear
11:53 PM 41.0 °F 37.1 °F 39.0 °F 93% 30.48 in 10.0 mi East 5.8 mph - N/A   Clear